[[{"header":{"parameterUnit":"m.s-1","parameterCategory":1,"la1":30.2991,"la2":30.254,"lo1":-89.0895,"lo2":-89.0444,"dy":0.0017,"dx":0.0017,"nx":28,"ny":28,"refTime":"2025-04-07T09:00:00:Z","depth":0,"parameterNumber":2,"parameterNumberName":"U-component_of_WINDS"},"data":[0,0,0,0,0,0,0,0,0,0,0,0,0,0,0,0,0,0,0,0,0,0,0,0,0,0,0,0,0,0,0,0,0,0,0,0,0,0,0,0,0,0,0,0,0,0,0,0,0,0,0,0,0,0,0,0,0,0,3.6743,3.6743,0,3.6796,3.6797,3.6797,3.6762,3.676,3.6759,3.6757,3.6813,3.6816,3.6819,0,0,0,0,0,0,0,0,0,0,0,0,0,3.6613,3.6616,3.6743,3.6743,3.6744,3.6796,3.6797,3.6798,3.6762,3.676,3.6758,3.6756,3.6812,3.6816,3.682,0,0,0,0,0,0,0,0,0,0,0,0,0,3.6668,3.6617,3.6743,3.6733,3.6732,3.6796,3.6797,3.6798,3.6763,3.676,3.6758,3.6756,3.6811,3.6816,3.682,3.6897,0,0,3.6834,3.6836,0,0,0,0,0,0,0,0,3.6665,3.6673,3.6734,3.6734,3.6733,3.677,3.6772,3.6831,3.6763,3.6751,3.6757,3.6754,3.6801,3.6806,3.6822,3.69,3.6902,3.6834,3.6837,3.6839,3.684,0,0,0,0,0,0,0,3.6662,3.6671,3.6764,3.6734,3.6734,3.6727,3.6732,3.6783,3.6789,3.6752,3.675,3.6756,3.68,3.6817,3.6823,3.6903,3.6834,3.6838,3.6841,3.6843,3.7049,3.7052,0,0,0,0,0,0,3.6658,3.6668,3.6762,3.6766,3.6693,3.6731,3.6737,3.6761,3.6789,3.679,3.6758,3.6755,3.6811,3.6817,3.6825,3.6918,3.6839,3.6843,3.6846,3.7047,3.705,3.7053,0,0,0,0,0,0,3.6656,3.6667,3.676,3.6716,3.6727,3.6736,3.6763,3.6763,3.678,3.6793,3.6794,3.6774,3.6809,3.6818,3.688,3.6919,3.6845,3.6849,3.7043,3.7048,3.7051,3.7104,0,0,0,0,0,0,3.6652,3.6666,3.6694,3.6717,3.673,3.6813,3.6765,3.6766,3.6787,3.6783,3.6809,3.681,3.6808,3.6873,3.6884,3.6924,3.6853,3.704,3.7045,3.705,3.7098,3.7109,3.7118,0,0,0,0,0,3.6648,3.6707,3.6696,3.6708,3.6765,3.6816,3.6823,3.6818,3.6791,3.682,3.6829,3.681,3.6913,3.688,3.6892,3.6934,3.7037,3.7044,3.705,3.7094,3.7107,3.7118,0,0,0,0,0,0,3.6688,3.6709,3.6698,3.6766,3.6789,3.6809,3.6846,3.6832,3.6864,3.6858,3.6852,3.6858,3.6923,3.6935,3.6897,3.7011,3.6971,3.698,3.7001,3.7013,3.7023,3.7018,3.6857,0,0,0,0,0,3.6705,3.6744,3.6761,3.6819,3.6832,3.6837,3.6859,3.6854,3.6878,3.6887,3.6901,3.6926,3.6964,3.6989,3.7025,3.7101,3.7107,3.7136,3.7145,3.7153,3.7161,3.7204,3.7217,3.7073,3.7073,3.7073,0,0,3.6741,3.6757,3.6782,3.6828,3.6845,3.6886,3.6845,3.689,3.6921,3.6894,3.6953,3.6965,3.6992,3.7061,3.7093,3.7073,3.7203,3.7161,3.7168,3.7171,3.7212,3.7225,3.7237,3.7078,3.7077,3.7076,0,0,3.6826,3.6842,3.6893,3.6912,3.6939,3.6943,3.6956,3.6979,3.6985,3.7044,3.7026,3.7064,3.7129,3.715,3.7169,3.7266,3.725,3.7279,3.733,3.7371,3.7383,3.7393,3.7428,3.7441,3.7286,3.7286,3.7287,0,3.6866,3.6927,3.6921,3.6968,3.699,3.6969,3.7021,3.704,3.7078,3.7094,3.7072,3.7156,3.7172,3.7247,3.7271,3.7287,3.7303,3.7275,3.7382,3.7392,3.7401,3.7435,3.7448,3.729,3.7289,3.7289,3.7289,0,3.6976,3.7018,3.7057,3.7094,3.712,3.717,3.7174,3.7201,3.7195,3.7201,3.7263,3.7284,3.7324,3.7342,3.7335,3.7417,3.7404,3.7382,3.7342,3.7418,3.745,3.7463,3.7294,3.7293,3.7292,3.7291,0,0,3.7086,3.7122,3.7136,3.7154,3.7184,3.7217,3.7267,3.7307,3.7331,3.7359,3.7401,3.7459,3.744,3.7462,3.7458,3.7495,3.7572,3.7469,3.7469,3.7488,3.7665,3.7681,3.7696,3.7562,3.7565,3.7567,3.7663,0,3.7173,3.7259,3.7257,3.7338,3.7378,3.736,3.7404,3.7428,3.7436,3.7473,3.7482,3.7524,3.7494,3.7508,3.7544,3.7555,3.7608,3.7548,3.7603,3.7605,3.7596,3.7712,3.7729,3.7818,3.7675,3.7677,3.7679,0,3.7286,3.7318,3.7402,3.7429,3.7445,3.7484,3.7522,3.7557,3.7585,3.7589,3.7615,3.7606,3.7659,3.7619,3.7692,3.7652,3.7674,3.7684,3.7687,3.7692,3.7646,3.772,3.7846,3.786,3.7698,3.7696,3.7695,0,3.7358,3.7423,3.7482,3.7498,3.753,3.7558,3.7573,3.7598,3.7623,3.7657,3.7673,3.7713,3.7734,3.7766,3.7769,3.7739,3.7844,3.7803,3.7849,3.7849,3.7871,3.787,3.8003,3.7886,3.7886,3.7886,3.7886,0,3.7455,3.7508,3.7515,3.7552,3.7611,3.761,3.7669,3.7681,3.7705,3.7744,3.7732,3.777,3.7772,3.7812,3.7815,3.7876,3.7886,3.7891,3.7892,3.7892,3.7892,3.7906,3.79,3.789,3.7889,3.7888,3.7887,0,3.7546,3.7553,3.7616,3.7642,3.765,3.7693,3.7715,3.7751,3.776,3.781,3.7822,3.7836,3.7882,3.7889,3.7943,3.7945,3.8019,3.8012,3.8009,3.8008,3.8054,3.805,3.8201,3.8222,3.8092,3.8093,3.8094,0,3.7607,3.7647,3.7678,3.7704,3.772,3.7761,3.7787,3.7789,3.7816,3.7853,3.7885,3.793,3.7965,3.804,3.8056,3.8098,3.8093,3.8143,3.8099,3.8099,3.8094,3.8092,3.8096,3.8151,3.8153,3.8154,3.8155,0,3.7716,3.7718,3.7755,3.7794,3.7825,3.7856,3.7885,3.7908,3.7913,3.7945,3.7992,3.802,3.8076,3.8121,3.8164,3.8181,3.817,3.8169,3.8182,3.8183,3.8179,3.8182,3.8032,3.8165,3.8164,3.8163,3.8163,3.8162,3.7793,3.7829,3.7857,3.7899,3.7922,3.795,3.7985,3.7999,3.8038,3.8083,3.8082,3.8135,3.8165,3.822,3.824,3.8282,3.8266,3.8285,3.8289,3.8294,3.8299,3.8173,3.829,3.829,3.8289,3.8289,3.8289,0,3.7902,3.7919,3.7958,3.8,3.8034,3.8021,3.8054,3.8083,3.8129,3.8158,3.8194,3.8249,3.8294,3.8314,3.8359,3.8389,3.8385,3.84,3.8398,3.8402,3.831,3.8295,3.8403,3.8403,3.8403,3.8403,3.8403,3.8403,3.7962,3.8022,3.8028,3.81,3.8117,3.8168,3.8188,3.8215,3.8238,3.83,3.8337,3.835,3.8376,3.8423,3.8464,3.8469,3.8486,3.8504,3.8507,3.842,3.8409,3.8398,3.8383,3.8508,3.8508,3.8596,3.8596,3.8597]},{"header":{"parameterUnit":"m.s-1","parameterCategory":1,"la1":30.2991,"la2":30.254,"lo1":-89.0895,"lo2":-89.0444,"dy":0.0017,"dx":0.0017,"nx":28,"ny":28,"refTime":"2025-04-07T09:00:00:Z","depth":0,"parameterNumber":3,"parameterNumberName":"V-component_of_WINDS"},"data":[0,0,0,0,0,0,0,0,0,0,0,0,0,0,0,0,0,0,0,0,0,0,0,0,0,0,0,0,0,0,0,0,0,0,0,0,0,0,0,0,0,0,0,0,0,0,0,0,0,0,0,0,0,0,0,0,0,0,-6.2702,-6.2704,0,-6.2842,-6.2843,-6.2845,-6.2821,-6.2819,-6.2816,-6.2814,-6.2953,-6.2958,-6.2964,0,0,0,0,0,0,0,0,0,0,0,0,0,-6.2414,-6.2419,-6.2702,-6.2704,-6.2706,-6.2841,-6.2843,-6.2845,-6.2822,-6.2819,-6.2816,-6.2813,-6.2951,-6.2958,-6.2965,0,0,0,0,0,0,0,0,0,0,0,0,0,-6.2545,-6.2421,-6.2702,-6.2711,-6.2713,-6.2841,-6.2843,-6.2846,-6.2822,-6.2819,-6.2815,-6.2812,-6.2948,-6.2957,-6.2966,-6.3093,0,0,-6.2993,-6.2997,0,0,0,0,0,0,0,0,-6.2537,-6.2555,-6.2708,-6.271,-6.2713,-6.2811,-6.2792,-6.2929,-6.2823,-6.2781,-6.2814,-6.281,-6.2908,-6.292,-6.2954,-6.31,-6.3106,-6.2994,-6.2999,-6.3003,-6.3006,0,0,0,0,0,0,0,-6.2528,-6.2549,-6.2757,-6.271,-6.2713,-6.2707,-6.2721,-6.2818,-6.2863,-6.2784,-6.2783,-6.28,-6.2909,-6.2945,-6.2957,-6.3108,-6.2994,-6.3001,-6.3007,-6.301,-6.3367,-6.3371,0,0,0,0,0,0,-6.2517,-6.2542,-6.2753,-6.2761,-6.2615,-6.2715,-6.2731,-6.2783,-6.2862,-6.287,-6.2803,-6.2798,-6.2932,-6.2947,-6.2962,-6.3117,-6.3003,-6.3011,-6.3016,-6.3363,-6.3368,-6.3373,0,0,0,0,0,0,-6.2511,-6.2536,-6.2747,-6.2652,-6.2678,-6.2724,-6.2782,-6.2787,-6.2824,-6.2876,-6.2883,-6.2832,-6.293,-6.2949,-6.3062,-6.3122,-6.3015,-6.3023,-6.3358,-6.3365,-6.337,-6.3429,0,0,0,0,0,0,-6.2503,-6.2534,-6.2583,-6.2653,-6.2683,-6.2845,-6.2786,-6.2793,-6.284,-6.2835,-6.2905,-6.2913,-6.2928,-6.3048,-6.307,-6.3132,-6.303,-6.3353,-6.3361,-6.3368,-6.3422,-6.3436,-6.3449,0,0,0,0,0,-6.2493,-6.2593,-6.2586,-6.2611,-6.2746,-6.2849,-6.2866,-6.2882,-6.2845,-6.2895,-6.2928,-6.2911,-6.3112,-6.306,-6.3085,-6.315,-6.3349,-6.3359,-6.3368,-6.3416,-6.3434,-6.3449,0,0,0,0,0,0,-6.2527,-6.2602,-6.2595,-6.2721,-6.2779,-6.2845,-6.2908,-6.29,-6.2969,-6.2962,-6.2978,-6.2994,-6.3108,-6.314,-6.3081,-6.3279,-6.3225,-6.324,-6.3253,-6.3271,-6.3284,-6.3273,-6.3038,0,0,0,0,0,-6.255,-6.2628,-6.2689,-6.2794,-6.2824,-6.2861,-6.2907,-6.2915,-6.2975,-6.2999,-6.304,-6.3098,-6.3175,-6.3224,-6.3297,-6.3427,-6.3442,-6.3484,-6.3498,-6.3508,-6.3521,-6.3593,-6.3613,-6.3403,-6.3403,-6.3403,0,0,-6.2596,-6.2647,-6.2695,-6.2803,-6.2848,-6.2929,-6.2882,-6.2968,-6.3028,-6.3011,-6.3121,-6.3154,-6.322,-6.3342,-6.3397,-6.3372,-6.3582,-6.352,-6.3529,-6.3535,-6.3605,-6.3624,-6.3642,-6.3409,-6.3408,-6.3407,0,0,-6.2723,-6.2769,-6.2863,-6.291,-6.2981,-6.3006,-6.3029,-6.3097,-6.3118,-6.3229,-6.3219,-6.329,-6.342,-6.3469,-6.351,-6.3658,-6.3646,-6.3682,-6.3752,-6.3822,-6.3839,-6.3854,-6.3907,-6.3926,-6.3694,-6.3694,-6.3694,0,-6.2771,-6.2893,-6.2911,-6.3,-6.3048,-6.3039,-6.3134,-6.3179,-6.327,-6.3303,-6.3273,-6.3439,-6.3483,-6.3617,-6.3654,-6.3687,-6.3714,-6.3673,-6.3835,-6.385,-6.3864,-6.3915,-6.3936,-6.3698,-6.3697,-6.3697,-6.3697,0,-6.295,-6.3035,-6.3102,-6.3192,-6.3248,-6.3339,-6.3371,-6.3425,-6.3429,-6.3456,-6.357,-6.3622,-6.3707,-6.3739,-6.3743,-6.3874,-6.3857,-6.3831,-6.3778,-6.3888,-6.3936,-6.3956,-6.3704,-6.3702,-6.3701,-6.37,0,0,-6.31,-6.3201,-6.3225,-6.3267,-6.3347,-6.3412,-6.3504,-6.3588,-6.3635,-6.3698,-6.3775,-6.3888,-6.3866,-6.3913,-6.3923,-6.3985,-6.41,-6.3952,-6.3954,-6.3978,-6.425,-6.4268,-6.4291,-6.4093,-6.4097,-6.41,-6.4244,0,-6.3234,-6.3397,-6.3417,-6.3562,-6.3641,-6.3635,-6.3715,-6.3772,-6.3801,-6.3872,-6.3903,-6.3984,-6.3948,-6.3977,-6.4038,-6.4073,-6.4155,-6.4063,-6.4164,-6.4168,-6.4148,-6.4316,-6.4335,-6.4469,-6.4263,-6.4267,-6.4269,0,-6.3412,-6.3483,-6.3636,-6.3707,-6.3741,-6.3812,-6.3893,-6.3961,-6.4026,-6.4043,-6.4098,-6.41,-6.4194,-6.4138,-6.4269,-6.4207,-6.4249,-6.4273,-6.4279,-6.4288,-6.4225,-6.433,-6.4512,-6.4532,-6.4299,-6.4296,-6.4294,0,-6.3506,-6.364,-6.375,-6.3786,-6.3871,-6.3922,-6.3959,-6.4021,-6.4071,-6.4141,-6.4174,-6.4254,-6.4297,-6.4359,-6.4382,-6.4339,-6.4513,-6.4458,-6.4529,-6.4529,-6.4565,-6.4562,-6.4756,-6.4593,-6.4593,-6.4592,-6.4592,0,-6.3654,-6.3748,-6.3794,-6.3861,-6.3967,-6.399,-6.4093,-6.4128,-6.4184,-6.4258,-6.4257,-6.4327,-6.4354,-6.4428,-6.4447,-6.4553,-6.4572,-6.4589,-6.4592,-6.4589,-6.4587,-6.4616,-6.4608,-6.4598,-6.4596,-6.4595,-6.4594,0,-6.3777,-6.3811,-6.3931,-6.4003,-6.4023,-6.4098,-6.4159,-6.4224,-6.4253,-6.4347,-6.4371,-6.4416,-6.4503,-6.4534,-6.4638,-6.4651,-6.4775,-6.4771,-6.4754,-6.4754,-6.4824,-6.4817,-6.5044,-6.5075,-6.4891,-6.4893,-6.4894,0,-6.3869,-6.3941,-6.4022,-6.4073,-6.4113,-6.4193,-6.4246,-6.4271,-6.4325,-6.4407,-6.4463,-6.455,-6.4621,-6.476,-6.4802,-6.4883,-6.4881,-6.4955,-6.4893,-6.4887,-6.4883,-6.4878,-6.4886,-6.4966,-6.4968,-6.4969,-6.4971,0,-6.4028,-6.4042,-6.4118,-6.4202,-6.4265,-6.4331,-6.4395,-6.4436,-6.4471,-6.4532,-6.4622,-6.4678,-6.4787,-6.4873,-6.4957,-6.4994,-6.4989,-6.499,-6.5011,-6.5008,-6.4995,-6.5004,-6.4785,-6.4985,-6.4983,-6.4982,-6.4981,-6.4981,-6.4139,-6.4204,-6.4272,-6.4357,-6.4408,-6.4469,-6.4535,-6.4573,-6.465,-6.4741,-6.4752,-6.4849,-6.4914,-6.5026,-6.5068,-6.5144,-6.5124,-6.5154,-6.5161,-6.5168,-6.5174,-6.4984,-6.516,-6.5159,-6.5159,-6.5159,-6.5158,0,-6.4298,-6.4343,-6.4421,-6.4512,-6.458,-6.4571,-6.4642,-6.4699,-6.4785,-6.4847,-6.4918,-6.5022,-6.5107,-6.5157,-6.5242,-6.5294,-6.5294,-6.5315,-6.5311,-6.5321,-6.5187,-6.5161,-6.5314,-6.5314,-6.5314,-6.5314,-6.5314,-6.5314,-6.439,-6.45,-6.4523,-6.4659,-6.4702,-6.4799,-6.4841,-6.4897,-6.4947,-6.5064,-6.5136,-6.5168,-6.5226,-6.5316,-6.5393,-6.5406,-6.5437,-6.5461,-6.5472,-6.5346,-6.533,-6.5314,-6.529,-6.5468,-6.5468,-6.5599,-6.56,-6.5601]}]]